Temp
65 66 66 65 64 63 63 63 63 62 61 60 60 59 59 60 61 62 62 63 61 62 60 59 59 58 57 57 57 58 58 57 58 57 57 58 61 61 64 65 66 66 66
64 64 63 63 63 62 63 62 63 62 61 60 61 60 60 60 61 61 62 63 62 62 61 60 59 58 57 57 58 58 56 57 58 56 57 55 58 62 62 65 65 64 66
63 63 64 61 61 61 62 63 63 63 62 63 61 60 60 60 60 60 61 62 63 64 62 61 59 59 58 57 57 58 58 56 57 59 59 55 54 57 63 63 64 64 65
65 65 63 60 61 62 63 63 63 63 64 63 61 61 58 57 59 59 59 60 62 63 62 61 60 59 58 57 58 59 59 58 57 59 61 60 61 56 57 62 63 64 64
65 63 63 64 63 64 62 62 63 63 64 63 62 60 59 59 59 58 59 59 61 63 63 61 60 59 58 59 60 59 59 59 58 59 59 59 59 60 59 58 60 63 64
61 61 64 64 63 62 61 62 62 62 63 63 63 61 59 59 57 57 57 58 58 61 61 61 60 60 59 59 59 59 59 59 60 61 61 60 58 58 59 59 60 60 61
61 62 62 62 61 61 61 61 62 62 63 63 62 61 60 59 58 57 57 56 56 57 58 59 60 59 60 61 60 60 61 59 60 60 60 59 60 61 61 61 59 59 61
62 63 63 62 61 62 61 63 62 62 62 63 61 61 60 58 57 58 58 57 57 57 58 59 60 61 62 61 60 61 61 60 60 60 60 60 63 63 63 60 59 57 58
60 61 63 61 61 60 61 62 61 62 62 63 61 61 61 60 59 58 58 57 58 59 59 60 60 61 61 61 61 61 61 61 61 61 61 61 63 63 62 62 61 59 56
61 62 63 61 61 61 61 61 62 63 63 64 62 63 66 61 60 59 58 58 58 59 60 60 60 60 61 60 61 60 60 62 62 63 63 62 62 62 62 61 61 61 59
62 63 63 61 61 61 61 61 61 62 62 63 63 65 63 62 61 60 59 59 59 59 60 60 61 61 60 60 60 59 61 63 63 64 63 61 62 61 61 61 62 61 61
63 64 62 61 60 60 61 62 62 62 63 64 64 66 64 62 61 60 60 60 60 60 60 61 61 61 61 61 61 61 63 63 62 62 63 62 63 61 62 61 61 61 61
62 63 60 62 62 61 62 63 63 63 63 65 64 64 63 62 61 60 60 60 60 60 62 61 61 62 62 61 61 61 60 62 63 63 63 63 63 61 61 61 61 61 62
65 64 63 62 63 63 63 64 63 63 63 64 63 62 63 63 62 61 60 60 61 61 61 62 63 63 62 62 62 61 59 59 61 62 63 64 63 62 62 62 61 61 61
65 65 64 63 62 60 63 65 64 63 63 64 63 63 63 63 64 62 62 61 61 62 63 63 63 63 62 63 62 62 62 61 59 60 62 61 62 61 61 62 61 61 60
67 67 67 65 64 64 65 66 64 63 64 63 63 64 64 68 65 64 62 63 61 61 62 62 62 61 62 52 54 61 62 61 61 60 61 61 60 59 57 58 57 59 60
69 68 68 68 67 66 68 65 63 63 64 63 64 65 65 68 63 64 62 61 60 58 59 59 60 58 58 51 52 55 62 61 61 61 61 63 64 61 62 55 55 55 55
71 70 70 70 68 68 67 68 64 66 66 64 65 66 66 68 64 62 61 59 58 58 57 57 58 57 58 49 50 54 63 61 61 61 61 62 61 61 61 60 60 59 58
74 73 73 72 69 68 68 68 66 66 67 66 65 66 66 64 64 61 58 59 57 56 57 58 58 59 57 48 49 58 61 61 59 61 61 61 59 51 50 60 58 56 56
76 74 73 72 70 70 68 68 67 66 66 67 68 67 66 64 63 61 60 59 58 58 59 58 58 56 57 48 50 57 62 58 57 57 58 53 57 46 48 59 59 57 56
75 75 72 72 72 72 70 68 68 68 69 70 70 67 65 64 63 61 60 60 59 59 57 58 56 58 57 53 48 52 60 60 57 57 56 54 46 47 47 51 57 56 55
73 74 73 72 72 72 72 68 68 71 71 69 70 68 64 70 65 63 60 61 59 57 56 55 54 55 56 51 49 49 52 53 59 57 56 51 45 45 45 51 45 46 51
75 76 75 72 71 73 74 69 70 71 72 67 68 66 65 66 65 65 60 58 59 57 56 56 54 55 55 51 46 46 48 50 57 57 54 45 43 44 45 44 44 49 54
75 76 75 72 70 73 75 74 70 73 72 67 66 65 65 63 65 67 65 63 57 57 57 56 55 55 54 50 47 50 50 48 52 49 46 46 46 46 47 50 50 53 52
77 77 74 73 72 73 73 74 73 74 73 67 66 65 66 65 64 65 64 65 63 63 59 59 61 56 53 54 49 49 52 51 50 47 47 47 47 48 49 50 50 49 50
77 76 75 74 74 73 74 73 75 74 73 67 66 67 65 64 65 61 54 44 48 49 50 50 57 59 56 48 46 45 46 44 45 50 49 48 48 49 49 50 50 50 50
MSLP
1003.20 1004.09 1005.06 1005.73 1006.32 1006.65 1007.13 1007.76 1008.00 1008.01 1008.32 1008.78 1009.03 1009.20 1009.21 1008.93 1008.77 1008.71 1008.65 1008.76 1008.89 1008.96 1009.21 1009.34 1009.51 1009.59 1009.89 1010.08 1010.31 1010.65 1010.95 1011.26 1011.43 1011.76 1012.17 1012.20 1011.97 1011.96 1012.30 1012.46 1012.56 1012.88 1012.86
1003.38 1004.21 1005.19 1005.79 1006.03 1006.62 1007.23 1007.72 1007.86 1007.96 1008.19 1008.49 1008.65 1008.82 1008.86 1008.80 1008.58 1008.46 1008.53 1008.30 1008.37 1008.51 1008.81 1009.06 1009.26 1009.37 1009.75 1009.95 1010.15 1010.46 1010.91 1011.19 1011.33 1011.67 1011.94 1012.48 1012.71 1012.59 1012.63 1012.80 1012.96 1013.24 1013.42
1003.09 1004.17 1005.17 1005.66 1006.16 1006.84 1007.23 1007.52 1007.74 1007.73 1007.94 1008.15 1008.46 1008.67 1008.78 1008.77 1008.53 1008.58 1008.51 1008.18 1008.12 1008.09 1008.40 1008.84 1009.06 1009.26 1009.59 1009.79 1009.88 1010.19 1010.59 1011.17 1011.30 1011.16 1011.43 1011.96 1012.34 1012.83 1012.99 1013.19 1013.33 1013.50 1013.93
1002.75 1003.68 1004.85 1005.62 1006.07 1006.62 1006.94 1007.23 1007.54 1007.58 1007.76 1008.00 1008.41 1008.64 1008.88 1008.87 1008.58 1008.58 1008.39 1008.28 1008.23 1008.23 1008.42 1008.71 1008.98 1009.14 1009.36 1009.54 1009.59 1009.72 1010.11 1010.60 1011.19 1011.26 1010.93 1011.14 1011.30 1012.09 1012.67 1013.19 1013.59 1013.97 1014.41
1001.99 1003.44 1004.50 1005.31 1005.91 1006.43 1006.82 1007.14 1007.36 1007.50 1007.62 1007.89 1008.20 1008.52 1008.76 1008.61 1008.60 1008.55 1008.54 1008.41 1008.40 1008.34 1008.56 1008.78 1008.99 1009.17 1009.22 1009.33 1009.38 1009.66 1009.94 1010.18 1010.70 1011.01 1011.24 1011.26 1011.22 1011.51 1011.89 1012.71 1013.69 1014.39 1014.86
1002.83 1003.80 1004.64 1005.33 1005.96 1006.35 1006.81 1007.10 1007.31 1007.55 1007.63 1007.85 1008.16 1008.39 1008.60 1008.52 1008.69 1008.78 1008.72 1008.66 1008.57 1008.55 1008.74 1008.89 1009.06 1009.26 1009.20 1009.41 1009.48 1009.69 1010.03 1010.15 1010.31 1010.61 1010.73 1010.78 1011.03 1011.54 1010.57 1013.05 1013.73 1014.34 1015.33
1003.02 1003.83 1004.74 1005.54 1006.00 1006.53 1006.85 1007.11 1007.29 1007.61 1007.68 1007.96 1008.19 1008.25 1008.40 1008.51 1008.74 1008.86 1008.86 1008.88 1008.87 1008.99 1009.02 1009.08 1009.25 1009.33 1009.30 1009.39 1009.50 1009.68 1009.92 1010.24 1010.37 1010.47 1010.52 1010.66 1010.76 1011.09 1012.04 1013.43 1013.98 1014.64 1015.46
1003.21 1004.01 1004.78 1005.34 1005.86 1006.37 1006.71 1006.91 1007.25 1007.52 1007.66 1007.93 1008.11 1008.14 1008.22 1008.59 1008.73 1008.77 1008.77 1009.00 1009.07 1009.12 1009.15 1009.27 1009.38 1009.35 1009.41 1009.54 1009.68 1009.90 1010.17 1010.30 1010.51 1010.63 1010.81 1011.09 1011.15 1011.02 1011.50 1012.98 1014.12 1015.00 1015.52
1003.17 1003.93 1004.76 1005.24 1005.75 1006.27 1006.65 1006.77 1007.18 1007.39 1007.68 1007.87 1007.99 1008.16 1008.20 1008.44 1008.62 1008.74 1008.79 1009.00 1009.11 1009.18 1009.20 1009.47 1009.58 1009.65 1009.73 1009.72 1009.88 1010.04 1010.44 1010.57 1010.80 1010.95 1011.08 1011.41 1011.71 1011.96 1012.44 1013.26 1013.38 1014.27 1015.64
1003.43 1004.04 1004.60 1005.16 1005.61 1006.07 1006.34 1006.62 1006.87 1007.28 1007.52 1007.63 1007.80 1007.87 1007.91 1008.26 1008.53 1008.77 1008.83 1008.97 1009.19 1009.23 1009.28 1009.52 1009.69 1009.81 1009.98 1010.02 1009.93 1010.41 1010.72 1010.83 1011.22 1011.29 1011.60 1012.04 1012.34 1012.74 1013.29 1013.69 1014.28 1014.82 1015.69
1002.96 1003.71 1004.41 1004.86 1005.33 1005.88 1006.26 1006.53 1006.86 1007.28 1007.50 1007.52 1007.65 1007.79 1007.98 1008.23 1008.62 1008.83 1008.90 1008.93 1009.19 1009.36 1009.38 1009.51 1009.79 1009.98 1010.15 1010.40 1010.47 1010.94 1011.04 1011.19 1011.52 1011.82 1012.02 1012.44 1012.71 1013.15 1013.79 1014.15 1014.74 1015.52 1016.19
1002.71 1003.53 1004.18 1004.69 1005.33 1005.84 1006.27 1006.44 1006.75 1007.08 1007.26 1007.38 1007.58 1007.68 1007.91 1008.36 1008.63 1008.76 1008.77 1008.97 1009.16 1009.45 1009.50 1009.60 1009.82 1010.18 1010.45 1010.63 1010.91 1011.24 1011.70 1011.86 1012.10 1012.36 1012.55 1012.89 1013.26 1013.80 1014.30 1014.65 1015.40 1015.78 1016.61
1002.62 1003.31 1003.99 1004.63 1005.18 1005.69 1006.04 1006.29 1006.56 1006.87 1007.18 1007.38 1007.63 1007.89 1008.03 1008.39 1008.64 1008.80 1008.84 1009.06 1009.24 1009.50 1009.70 1009.82 1009.99 1010.25 1010.66 1010.99 1011.25 1011.49 1011.91 1012.22 1012.44 1012.67 1012.93 1013.25 1013.70 1014.30 1014.69 1015.11 1015.81 1016.54 1016.90
1002.00 1002.80 1003.59 1004.15 1004.77 1005.34 1005.72 1006.06 1006.35 1006.67 1007.09 1007.39 1007.75 1007.99 1008.08 1008.30 1008.63 1008.86 1008.98 1009.19 1009.42 1009.61 1009.81 1010.07 1010.24 1010.51 1010.84 1011.21 1011.62 1011.97 1012.38 1012.80 1013.10 1013.17 1013.35 1013.67 1014.03 1014.40 1015.02 1015.61 1016.18 1016.62 1017.24
1001.69 1002.29 1002.91 1003.62 1004.35 1005.01 1005.36 1005.65 1006.02 1006.55 1006.94 1007.37 1007.78 1008.01 1008.12 1008.29 1008.57 1008.98 1009.12 1009.33 1009.63 1009.73 1009.83 1010.19 1010.52 1010.84 1011.13 1011.56 1011.85 1012.21 1012.58 1012.90 1013.44 1013.78 1014.04 1014.20 1014.46 1014.88 1015.36 1015.77 1016.38 1016.97 1017.52
1000.89 1001.59 1002.24 1002.90 1003.69 1004.43 1004.89 1005.35 1005.84 1006.32 1006.78 1007.25 1007.69 1007.87 1008.08 1008.41 1008.61 1008.99 1009.39 1009.60 1009.93 1010.06 1010.12 1010.34 1010.72 1011.08 1011.36 1011.83 1012.19 1012.47 1012.87 1013.18 1013.58 1014.04 1014.43 1014.78 1015.07 1015.43 1015.76 1016.24 1016.77 1017.15 1017.50
999.96 1000.76 1001.43 1002.02 1002.76 1003.67 1004.23 1004.82 1005.42 1006.00 1006.62 1007.09 1007.51 1007.78 1008.07 1008.19 1008.68 1009.04 1009.56 1009.89 1010.29 1010.48 1010.61 1010.86 1011.09 1011.50 1011.72 1012.13 1012.56 1012.90 1013.28 1013.50 1013.87 1014.24 1014.64 1015.09 1015.62 1015.91 1016.39 1016.86 1017.10 1017.32 1017.40
998.87 999.72 1000.44 1001.25 1001.96 1002.83 1003.63 1004.13 1004.93 1005.72 1006.38 1006.92 1007.32 1007.64 1008.01 1008.30 1008.77 1009.28 1009.79 1010.20 1010.50 1010.84 1011.12 1011.40 1011.54 1011.79 1012.11 1012.36 1012.69 1013.17 1013.58 1013.98 1014.38 1014.70 1015.03 1015.32 1015.83 1016.26 1016.72 1017.06 1017.20 1017.21 1017.35
997.36 998.31 999.16 1000.06 1001.14 1001.98 1002.81 1003.63 1004.60 1005.30 1006.02 1006.62 1006.99 1007.41 1007.89 1008.36 1008.86 1009.32 1009.75 1010.30 1010.82 1011.18 1011.38 1011.54 1011.88 1012.17 1012.49 1012.66 1012.86 1013.32 1013.78 1014.30 1014.71 1015.05 1015.38 1015.65 1016.12 1016.41 1016.68 1017.04 1017.52 1017.52 1017.62
996.70 997.70 998.63 999.69 1000.51 1001.30 1002.31 1003.19 1004.06 1004.85 1005.51 1006.16 1006.56 1007.05 1007.61 1008.22 1008.73 1009.27 1009.69 1010.15 1010.62 1011.14 1011.48 1011.91 1011.96 1012.22 1012.67 1012.82 1013.07 1013.35 1013.88 1014.59 1014.94 1015.22 1015.43 1015.64 1015.89 1016.35 1016.79 1016.91 1017.33 1017.70 1017.79
996.09 997.21 998.20 998.89 999.62 1000.61 1001.64 1002.68 1003.40 1004.12 1004.60 1005.37 1006.14 1006.73 1007.25 1007.89 1008.42 1009.10 1009.55 1010.09 1010.65 1011.16 1011.58 1011.97 1012.21 1012.39 1012.67 1013.12 1013.23 1013.47 1013.91 1014.44 1015.00 1015.34 1015.82 1016.02 1016.01 1016.33 1016.68 1016.86 1017.15 1017.55 1017.85
996.10 996.76 997.55 998.34 999.25 1000.02 1000.94 1001.96 1002.72 1003.20 1004.04 1004.84 1005.64 1006.42 1006.91 1007.33 1008.16 1008.78 1009.39 1009.88 1010.56 1011.16 1011.71 1012.14 1012.47 1012.63 1012.84 1013.01 1013.30 1013.55 1013.67 1014.24 1014.82 1015.41 1015.67 1016.07 1016.34 1016.40 1016.63 1017.02 1017.32 1017.56 1017.71
995.16 995.77 996.70 997.80 998.81 999.43 1000.04 1001.15 1001.93 1002.74 1003.51 1004.34 1005.05 1005.84 1006.56 1007.12 1007.71 1008.47 1009.23 1009.84 1010.27 1011.02 1011.76 1012.26 1012.62 1012.74 1013.02 1013.32 1013.43 1013.56 1013.84 1014.16 1014.63 1014.92 1015.31 1015.87 1016.32 1016.54 1016.92 1017.10 1017.35 1017.49 1018.00
994.57 995.20 996.34 997.36 998.30 999.07 999.47 999.99 1001.19 1002.08 1003.00 1003.95 1004.62 1005.38 1006.18 1006.94 1007.45 1008.05 1008.68 1009.42 1009.98 1010.51 1011.25 1011.89 1012.39 1012.60 1013.05 1013.64 1013.85 1013.96 1014.15 1014.37 1014.72 1015.17 1015.77 1016.27 1016.76 1016.99 1017.18 1017.53 1017.75 1017.87 1018.19
993.82 994.64 995.61 996.54 997.35 998.20 998.96 999.70 1000.49 1001.26 1002.23 1003.32 1004.11 1004.92 1005.63 1006.34 1007.17 1007.75 1008.33 1008.68 1009.04 1009.31 1010.19 1010.82 1011.32 1012.04 1012.69 1012.91 1013.21 1013.68 1014.21 1014.35 1014.71 1015.53 1016.19 1016.85 1017.20 1017.39 1017.58 1017.77 1018.03 1018.33 1018.71
993.33 994.17 995.01 995.82 996.68 997.46 998.23 999.02 999.77 1000.56 1001.42 1002.79 1003.56 1004.26 1005.14 1005.94 1006.70 1007.56 1008.58 1008.77 1008.62 1008.94 1009.23 1009.67 1010.33 1011.07 1011.20 1011.80 1012.56 1013.13 1013.50 1013.98 1014.45 1015.26 1015.89 1016.49 1016.75 1016.98 1017.28 1017.78 1018.31 1018.43 1018.61
Wind_Speed
6 8 10 10 9 8 9 8 7 6 3 1 1 1 3 2 3 3 6 6 5 5 5 4 4 3 4 4 4 3 4 3 2 3 1 2 3 4 4 5 5 5 5
10 11 11 8 8 9 8 8 7 6 4 2 2 2 2 3 3 1 3 4 5 6 5 5 4 4 3 4 5 4 2 2 4 4 3 3 3 3 2 4 5 7 7
16 14 13 10 9 9 9 8 8 7 4 3 2 1 2 2 1 1 3 2 2 5 5 4 4 4 3 4 4 5 5 3 1 2 4 3 3 3 2 4 5 8 6
12 14 13 10 10 8 8 8 7 7 4 5 2 3 2 2 1 1 2 0 1 2 3 4 4 4 3 5 5 5 4 4 4 0 2 2 5 4 5 5 5 7 8
19 17 14 13 7 8 8 7 8 6 6 5 3 3 1 1 1 1 2 0 1 0 3 4 4 3 1 3 5 5 5 3 4 4 2 1 3 4 3 6 7 6 5
9 9 11 10 8 7 7 7 7 5 5 4 4 5 4 4 4 1 1 1 1 1 3 4 4 2 3 4 3 4 5 3 4 3 4 4 4 4 5 7 9 9 5
12 15 14 9 8 8 8 7 7 5 5 4 6 6 6 6 6 2 1 1 2 2 3 3 3 2 2 4 4 4 4 5 3 4 3 2 4 5 11 6 5 5 4
11 13 12 10 9 9 9 8 7 5 4 5 6 4 6 4 4 3 2 2 2 3 3 4 3 3 3 5 5 4 3 4 4 5 4 4 5 7 12 7 9 8 3
12 14 11 9 9 8 9 9 8 6 4 6 6 4 5 6 5 4 4 3 3 2 4 4 3 2 3 5 6 4 5 6 5 5 7 6 5 5 6 10 11 9 7
11 12 11 9 7 8 7 7 7 8 6 6 6 5 5 5 5 4 5 5 3 2 4 4 4 4 4 5 6 5 5 8 5 6 8 7 6 7 7 6 6 7 7
15 13 10 9 9 8 8 7 7 7 6 5 4 5 5 5 5 4 4 5 4 4 4 5 5 5 6 6 7 6 6 9 8 8 8 9 9 8 7 7 8 8 6
13 12 11 9 9 9 7 8 7 7 7 5 4 5 6 5 6 5 5 4 5 4 5 5 5 6 6 6 7 8 10 10 8 6 9 9 8 9 8 7 8 8 6
12 11 9 10 10 8 7 7 7 7 6 5 6 5 6 6 6 5 5 5 6 6 6 5 5 6 7 8 6 7 8 9 8 6 8 9 11 10 8 8 8 7 7
16 14 11 10 10 10 8 7 7 7 7 7 6 7 6 6 5 5 5 6 5 6 6 5 5 5 6 7 7 7 6 6 6 5 7 8 10 11 10 9 8 7 8
16 16 14 12 10 8 8 7 7 7 7 7 7 7 6 5 6 6 5 6 5 5 5 6 6 6 6 6 8 7 7 6 7 6 6 5 7 10 9 8 7 8 5
18 17 16 14 13 12 11 9 7 8 7 8 7 7 4 6 6 7 6 6 5 4 5 6 6 5 4 12 10 8 7 5 6 7 6 8 12 11 12 8 6 5 7
19 18 18 16 14 13 13 11 8 8 9 8 7 7 5 6 7 7 5 7 6 5 6 6 6 5 6 13 14 12 5 4 6 6 7 8 6 8 7 5 8 9 10
19 18 16 15 14 12 12 11 9 11 11 8 8 7 6 6 7 7 7 5 5 6 5 6 6 6 3 8 13 13 10 6 5 6 6 7 9 7 7 6 4 2 4
19 18 17 17 14 14 13 13 11 12 12 11 9 7 7 6 7 7 8 6 6 4 4 5 7 7 3 7 11 10 7 7 6 5 5 7 7 9 11 7 6 6 4
17 17 16 15 15 15 13 14 13 13 14 12 12 8 8 7 8 8 8 5 5 6 5 5 5 8 5 6 10 8 5 5 4 3 4 9 9 12 10 8 7 6 3
17 14 16 18 19 15 15 14 14 15 14 14 12 9 8 9 8 7 5 7 6 6 6 6 4 6 6 5 10 11 5 6 5 5 4 3 6 11 12 9 6 5 5
12 16 16 15 15 16 16 15 16 15 11 13 13 11 9 9 7 10 5 6 7 7 6 5 4 2 4 6 8 11 10 7 7 6 4 5 8 11 11 8 10 11 7
17 17 17 15 13 17 18 17 15 14 13 11 13 12 10 8 10 11 7 5 6 6 5 5 4 4 3 3 6 9 11 10 5 4 7 12 9 12 9 9 10 9 5
16 16 15 16 16 15 17 17 15 15 14 12 11 10 11 9 10 9 9 8 6 5 5 5 6 4 4 4 3 3 3 6 5 7 6 5 6 6 6 5 4 4 4
15 16 16 16 17 17 16 14 15 16 15 11 10 11 10 12 10 9 9 10 9 10 7 7 8 7 5 6 10 9 5 5 5 8 4 3 2 3 3 2 3 3 3
15 15 16 16 16 17 16 15 16 15 15 11 10 10 10 9 10 9 4 9 2 11 11 13 9 5 10 15 16 14 11 13 16 4 4 4 4 6 5 5 4 2 5
Wind_Direction
146 140 144 144 139 130 128 148 152 163 139 144 283 292 248 263 253 198 215 224 227 228 210 200 220 186 183 194 171 156 179 233 165 102 125 104 119 162 131 167 129 110 102
144 140 152 154 144 145 152 157 172 159 172 150 205 191 228 262 239 242 252 239 221 213 199 202 214 189 164 180 174 148 118 180 185 143 135 105 20 32 161 119 131 131 114
158 159 165 159 142 149 165 169 176 166 163 149 114 43 15 302 356 273 260 244 200 171 184 198 205 178 176 190 175 162 151 153 86 177 148 127 175 127 94 137 140 124 118
163 160 160 156 155 169 166 163 167 158 154 155 132 173 191 254 256 235 257 209 139 169 163 173 175 173 180 189 183 173 156 142 158 357 32 182 157 157 149 135 123 122 123
167 163 162 155 164 155 160 164 151 153 165 178 137 144 194 257 106 76 106 63 347 139 164 154 175 154 161 172 179 158 150 149 136 152 162 98 54 120 146 131 132 113 111
138 125 139 149 150 149 144 148 149 160 189 187 159 141 132 124 101 119 108 300 57 66 118 122 140 148 142 156 190 148 138 136 127 155 173 168 161 163 104 131 131 135 120
142 146 153 151 151 152 153 147 148 175 211 139 162 148 149 122 114 150 133 83 83 76 118 101 105 130 116 133 166 152 137 155 170 158 180 128 117 126 110 130 109 117 112
146 151 156 160 157 156 157 152 161 190 193 151 174 169 145 126 132 150 136 95 105 123 128 107 96 52 83 86 97 107 107 109 106 140 107 100 124 135 139 126 132 113 95
151 149 161 159 153 155 166 163 171 199 184 170 165 176 156 139 151 128 109 114 129 133 122 119 126 127 106 100 102 99 98 84 93 91 89 89 82 97 109 138 144 140 139
142 157 162 158 159 164 164 169 177 179 184 198 152 191 163 144 154 136 133 146 139 124 134 129 145 133 110 109 98 85 78 97 98 109 108 99 95 96 106 112 112 126 129
159 162 161 166 161 157 159 168 170 169 173 201 163 178 146 148 147 152 159 154 145 151 149 147 140 139 124 123 97 83 89 101 99 115 117 108 108 105 97 97 109 110 111
158 161 162 158 154 163 162 162 161 163 172 172 146 142 130 137 140 154 163 147 154 145 144 135 127 119 117 110 115 109 115 118 113 106 122 118 110 102 108 106 110 103 119
153 157 152 163 163 167 169 168 163 180 167 161 123 134 133 134 136 140 144 129 132 134 127 125 124 124 124 117 116 115 111 126 134 125 130 129 124 118 117 107 109 121 116
164 165 163 167 165 171 173 175 175 170 166 151 128 138 164 148 137 132 133 134 134 128 130 135 130 122 122 124 118 117 111 106 117 106 122 137 134 129 126 117 117 114 111
169 174 171 172 169 170 175 180 174 154 161 146 139 162 180 136 140 138 139 131 133 137 143 137 127 129 132 131 131 126 122 124 113 102 117 109 114 122 121 126 128 129 139
177 179 178 173 175 175 180 182 170 157 155 151 159 171 175 157 169 136 140 124 134 127 120 127 128 122 126 137 117 124 117 127 127 112 102 118 117 110 121 121 139 153 151
179 178 183 182 177 175 176 180 166 151 157 157 166 163 157 142 164 141 142 130 120 110 120 127 122 113 130 137 130 123 130 110 111 114 127 132 141 141 160 165 196 190 203
179 185 182 182 179 169 173 171 145 160 161 163 168 168 155 153 132 136 156 128 128 133 127 125 120 121 133 151 145 144 153 143 144 150 150 141 163 182 154 176 197 179 169
182 183 183 181 172 169 171 164 156 158 164 171 170 175 160 162 133 132 141 135 125 124 130 132 128 124 108 176 155 135 132 138 151 158 164 150 162 184 174 154 135 101 87
181 179 178 173 171 174 163 161 166 162 170 173 177 174 163 160 154 151 144 150 145 147 141 144 141 132 120 148 156 132 130 130 133 134 162 162 156 163 172 143 143 125 163
180 175 165 172 181 166 160 167 169 178 174 174 175 171 171 164 164 161 147 142 145 139 145 152 164 141 135 111 135 140 142 147 148 148 151 134 143 147 166 157 150 163 148
169 171 174 175 171 168 166 166 177 179 169 165 172 178 178 170 162 161 160 151 136 143 160 157 167 196 159 153 120 144 136 144 145 168 163 150 165 128 131 126 131 125 112
177 176 175 169 170 173 173 171 182 170 174 163 172 176 173 165 161 165 163 149 158 147 163 170 184 197 179 161 149 137 147 161 143 162 160 145 135 111 87 105 122 106 99
174 173 166 170 171 180 180 181 166 174 171 173 171 165 165 164 166 173 168 169 171 163 160 171 183 196 171 171 182 168 139 135 103 102 105 125 119 85 116 110 93 101 114
171 167 173 175 179 177 181 174 173 172 175 170 168 167 169 171 170 173 175 180 194 181 174 185 181 175 190 205 178 171 178 178 148 112 97 109 115 136 158 106 110 103 119
170 173 178 176 177 178 179 176 176 175 171 168 168 171 168 169 170 161 136 34 143 189 181 169 168 202 196 165 177 183 173 150 148 109 143 178 178 184 177 160 140 126 124